Wind_Speed
6 5 4 4 5 5 6 5 5 5 5 6 7 8 8 8 10 10 11 11 11 10 10 8 8 8 9 9 9 9 9 8 8 8 8 8 7 6 6 6 6 6 7 8
8 7 7 6 6 7 7 7 6 7 6 7 7 9 9 10 9 9 10 11 11 9 9 9 8 8 9 9 9 9 8 9 9 9 9 8 7 8 8 7 7 7 8 8
9 7 8 7 8 8 7 7 7 7 7 8 8 10 10 10 10 9 10 11 12 11 11 10 9 9 9 9 9 9 9 9 9 9 9 9 8 8 8 8 8 8 8 8
10 9 8 9 10 9 7 8 9 8 8 8 9 13 13 11 11 10 10 11 12 13 13 13 11 10 9 9 9 9 9 9 9 9 9 10 10 10 8 8 7 8 9 10
12 11 10 11 11 10 9 9 8 8 10 11 10 10 12 12 12 11 12 13 13 13 14 14 12 10 10 10 10 9 10 10 10 10 11 11 12 11 11 10 10 10 10 10
13 12 12 12 12 12 11 10 9 8 9 11 9 10 14 14 13 13 13 14 14 15 14 14 13 11 11 11 11 10 10 11 11 11 11 11 12 12 12 11 12 12 12 12
14 13 13 13 13 12 12 11 10 9 10 11 11 13 15 14 15 15 14 13 15 15 14 14 13 12 12 12 12 11 11 11 12 12 12 12 12 13 14 13 13 13 14 14
13 14 14 14 13 12 12 11 10 10 10 11 11 13 15 15 16 16 15 15 15 14 14 13 14 13 13 13 13 13 13 12 13 13 13 14 14 14 15 14 15 15 15 15
13 12 13 15 13 12 12 12 11 13 13 14 13 15 16 17 17 16 16 17 15 14 14 14 14 15 14 13 14 15 14 14 14 14 15 15 15 15 15 15 16 16 16 17
15 15 15 14 15 14 14 14 13 14 15 15 14 15 16 17 17 17 18 19 17 17 15 15 15 15 15 15 16 16 16 16 16 16 16 16 16 16 17 18 18 19 19 19
15 15 15 15 15 14 14 15 16 16 17 16 17 18 17 20 21 19 18 19 18 16 16 16 16 16 17 17 17 18 17 18 18 18 18 18 17 18 18 19 19 20 20 20
16 16 17 17 15 15 16 16 17 17 17 17 17 19 19 21 23 21 19 19 18 18 17 17 17 18 18 19 19 19 19 20 20 20 19 19 19 20 21 20 20 21 21 21
19 18 17 15 16 16 17 16 16 17 19 19 19 21 22 24 24 23 21 20 18 18 17 17 18 19 19 20 20 20 20 20 20 20 20 20 21 22 22 22 22 22 22 22
21 20 19 18 17 17 18 19 18 19 21 21 20 22 24 26 24 23 23 23 21 20 19 19 20 21 21 21 21 21 21 21 22 22 22 22 23 24 24 24 23 23 23 23
22 22 23 22 20 19 19 19 20 20 22 22 22 23 25 28 25 24 24 24 23 23 23 22 23 23 22 22 22 23 23 23 23 23 23 23 24 25 25 25 24 24 25 25
24 25 24 23 22 20 21 21 22 22 23 23 24 26 27 28 27 25 26 25 25 25 25 25 24 24 23 23 23 23 23 24 23 24 25 25 25 25 25 25 25 25 25 26
26 26 25 23 22 22 23 23 22 23 23 24 25 26 27 28 28 27 28 27 25 25 26 26 25 24 24 24 24 24 24 25 25 26 26 26 26 26 26 26 26 26 27 27
26 27 26 24 23 25 24 23 23 24 24 24 26 26 26 27 28 28 29 27 25 25 26 27 27 26 26 26 26 26 26 27 27 27 27 27 27 27 27 27 28 28 28 28
26 26 26 25 25 25 25 24 24 25 26 26 27 27 27 29 29 28 29 29 28 27 27 28 27 27 28 28 28 28 29 29 29 29 29 29 29 29 29 29 29 29 30 29
26 26 26 26 26 26 27 26 24 25 27 27 27 28 28 28 28 29 31 30 28 28 29 29 28 29 29 30 30 30 31 30 30 30 30 30 30 30 30 30 30 30 31 31
27 28 28 27 27 27 27 27 25 26 29 29 29 28 28 28 29 31 32 32 31 30 30 30 29 29 29 30 31 31 31 30 30 30 30 30 30 31 31 31 31 31 31 32
28 29 29 28 29 29 29 29 29 30 31 32 32 31 31 31 31 32 32 32 32 31 30 30 30 30 30 30 30 30 31 31 30 30 30 31 31 31 31 31 31 32 32 32
29 29 29 30 31 31 31 31 32 32 31 31 32 32 31 32 32 32 32 31 31 31 31 32 32 31 31 30 30 31 31 31 31 32 32 33 32 32 32 32 32 33 33 33
29 31 30 31 31 30 30 31 32 32 32 30 28 30 30 31 31 32 32 32 32 32 32 32 32 32 31 31 31 32 32 32 32 32 33 32 32 32 33 33 34 33 33 33
30 31 31 32 32 31 32 33 32 32 30 30 31 31 30 30 31 32 32 32 32 32 32 32 32 32 32 31 32 32 32 32 33 32 32 32 32 32 32 33 33 33 32 33
30 30 31 32 32 32 32 32 31 30 31 30 30 30 30 30 30 30 31 31 31 31 31 32 32 32 32 31 31 31 32 32 32 32 32 32 33 33 33 33 33 33 34 34
Wind_Direction
218 229 243 253 246 241 242 244 248 267 292 297 301 311 319 323 322 329 334 337 339 346 346 340 332 331 332 336 335 334 335 339 340 339 330 328 324 325 328 329 325 322 324 324
232 241 243 239 247 245 246 256 260 272 280 289 296 297 309 316 317 317 324 325 334 340 336 332 325 329 329 333 332 329 327 328 331 332 327 325 319 318 320 319 323 324 325 324
240 247 244 242 246 253 253 259 258 258 262 276 293 296 302 307 310 313 315 315 318 322 326 329 331 326 324 323 324 322 320 322 322 324 325 320 319 316 310 313 320 321 320 320
235 236 235 243 247 245 249 253 258 254 256 264 271 284 293 296 303 310 312 311 310 315 317 320 321 320 318 320 318 318 318 319 319 319 321 321 323 322 312 310 312 315 318 317
235 235 233 244 250 251 245 245 256 263 262 266 262 274 287 293 298 302 305 306 307 314 313 315 315 312 311 314 313 314 316 318 317 316 315 314 316 318 316 312 304 303 308 309
233 235 239 242 247 251 250 249 258 261 264 273 276 277 278 283 289 290 293 299 305 309 311 311 311 310 310 312 310 313 316 316 315 315 314 312 311 314 313 311 307 302 302 302
237 235 240 243 244 251 251 248 254 261 266 273 274 278 275 280 281 285 293 298 301 303 305 304 302 300 304 308 309 309 312 312 311 310 308 307 307 308 310 312 311 306 305 304
246 242 244 244 244 251 252 249 251 255 264 275 276 275 279 280 281 285 288 288 296 298 301 299 299 298 300 302 303 304 308 309 308 308 306 304 303 304 306 308 309 311 311 308
242 246 251 250 250 252 255 248 249 263 261 259 259 266 273 280 284 288 292 296 297 297 301 300 298 297 297 296 297 301 303 305 303 303 304 301 302 303 303 303 305 308 310 309
234 238 243 251 251 249 245 249 243 247 258 262 263 268 270 279 284 289 294 298 300 295 293 292 293 293 294 293 293 294 294 298 299 300 300 300 302 300 299 299 300 302 304 303
237 242 248 247 250 250 249 253 251 246 245 256 260 261 264 273 280 285 288 293 297 295 295 290 286 288 293 291 290 292 289 294 296 297 297 299 300 300 300 299 298 299 300 299
233 240 247 248 248 249 248 250 252 256 255 255 258 266 268 274 280 283 283 287 289 291 292 291 293 293 293 292 292 291 292 293 294 296 296 296 297 298 298 297 296 296 296 296
230 233 243 248 251 253 252 253 254 258 260 261 262 267 275 275 275 280 284 287 283 283 286 290 293 293 291 294 294 294 294 294 295 296 296 296 296 297 296 294 294 294 295 295
239 237 238 243 251 255 257 255 253 254 258 261 263 268 272 274 273 275 278 279 282 286 288 289 291 294 293 294 295 295 293 294 294 294 294 295 295 295 296 293 293 294 294 292
242 240 240 240 244 251 258 259 257 256 257 258 264 266 270 274 274 276 277 280 284 284 287 289 289 291 291 292 293 293 293 293 293 292 292 293 294 294 293 291 290 293 293 291
243 243 244 245 245 249 256 259 258 255 256 258 261 265 269 270 275 277 279 280 283 283 286 288 290 292 291 291 293 294 293 292 293 294 293 293 294 293 293 292 292 292 292 291
242 246 247 248 249 252 254 256 260 260 257 258 260 262 266 268 269 274 280 284 284 284 287 289 290 291 291 291 292 292 292 293 294 294 294 292 291 292 293 292 292 291 291 291
247 249 250 251 252 253 256 258 259 260 261 261 264 268 270 271 274 275 277 279 280 283 285 287 288 289 290 289 290 291 291 292 292 292 293 292 290 291 291 290 291 290 289 289
244 247 248 250 253 254 257 257 260 261 262 264 267 270 268 272 275 275 275 276 277 282 285 285 286 286 286 287 288 288 289 290 290 291 291 291 291 291 290 289 289 289 288 287
243 246 247 248 252 256 257 258 259 261 265 266 269 269 268 270 273 275 275 278 279 283 285 285 283 284 284 284 286 287 287 288 288 290 291 291 290 290 290 289 289 289 289 288
243 245 246 249 252 256 259 259 259 261 265 268 269 268 268 271 271 273 276 278 280 282 284 284 283 284 285 285 285 286 287 288 288 288 289 290 289 288 289 290 290 289 289 289
244 245 247 247 250 253 256 258 260 262 264 266 269 269 268 269 270 272 275 277 279 281 282 283 284 285 285 285 285 286 287 287 286 287 288 289 289 289 289 290 292 292 291 290
245 247 248 248 250 254 256 260 259 262 265 268 268 268 269 270 272 274 275 276 277 279 281 282 284 284 285 285 286 286 288 287 287 287 288 289 290 288 288 290 291 292 292 290
245 246 248 250 253 256 258 262 263 264 265 268 270 270 270 272 273 275 275 276 277 279 280 282 283 284 285 285 285 286 288 289 289 288 288 288 288 289 290 290 290 291 291 290
244 248 249 253 255 257 258 261 264 263 266 268 270 272 273 272 275 277 278 278 278 279 280 282 283 284 284 284 285 286 288 289 290 288 287 287 287 288 290 290 290 290 290 290
245 248 249 251 255 256 257 259 263 263 266 268 269 272 273 273 275 277 279 280 280 279 280 282 284 285 286 285 285 286 287 288 289 287 287 288 288 289 291 291 291 290 289 289
Height
5906 5907 5908 5910 5911 5912 5912 5913 5914 5914 5913 5913 5911 5910 5910 5908 5907 5906 5904 5903 5901 5900 5898 5896 5896 5895 5895 5894 5893 5892 5891 5890 5889 5888 5887 5886 5885 5885 5885 5884 5884 5883 5883 5882
5905 5907 5909 5909 5911 5911 5911 5911 5912 5912 5912 5912 5911 5910 5909 5908 5907 5906 5904 5903 5900 5899 5898 5897 5896 5895 5894 5893 5892 5891 5890 5890 5889 5887 5886 5886 5885 5884 5884 5884 5883 5882 5882 5882
5903 5907 5907 5908 5909 5910 5910 5911 5911 5911 5911 5911 5910 5909 5908 5908 5906 5905 5904 5902 5900 5899 5898 5896 5894 5894 5894 5893 5892 5891 5890 5889 5888 5887 5886 5885 5884 5884 5883 5883 5882 5881 5881 5881
5902 5904 5905 5906 5908 5908 5909 5910 5909 5909 5909 5909 5910 5909 5907 5906 5905 5904 5903 5901 5900 5898 5896 5895 5894 5893 5892 5892 5891 5890 5889 5888 5887 5886 5885 5884 5884 5883 5882 5881 5881 5880 5880 5879
5900 5902 5903 5905 5906 5906 5907 5907 5907 5907 5907 5907 5907 5907 5906 5905 5903 5903 5902 5900 5899 5896 5895 5894 5893 5892 5891 5890 5889 5889 5888 5887 5886 5885 5884 5883 5883 5882 5881 5880 5879 5879 5878 5877
5897 5899 5901 5902 5903 5904 5904 5905 5905 5904 5905 5906 5906 5906 5905 5902 5902 5901 5900 5899 5897 5895 5893 5892 5890 5890 5889 5888 5887 5887 5886 5885 5885 5884 5883 5882 5881 5880 5879 5878 5878 5877 5876 5876
5894 5896 5898 5899 5900 5901 5902 5903 5903 5903 5903 5903 5905 5904 5902 5901 5900 5899 5897 5896 5895 5893 5891 5890 5888 5887 5887 5886 5886 5885 5885 5884 5883 5882 5881 5880 5879 5878 5877 5876 5876 5875 5874 5873
5892 5894 5895 5896 5897 5898 5899 5900 5901 5901 5903 5903 5902 5901 5899 5898 5898 5896 5895 5893 5892 5890 5888 5887 5886 5885 5885 5884 5884 5883 5883 5882 5881 5880 5879 5878 5877 5876 5875 5874 5874 5873 5872 5871
5889 5892 5893 5893 5894 5895 5895 5896 5899 5899 5899 5899 5899 5898 5897 5895 5894 5893 5892 5890 5889 5888 5886 5885 5884 5883 5882 5882 5882 5881 5880 5880 5879 5878 5877 5875 5874 5873 5873 5872 5871 5870 5869 5868
5886 5888 5889 5890 5891 5891 5893 5894 5895 5896 5896 5896 5896 5894 5893 5892 5891 5890 5889 5887 5886 5885 5884 5883 5881 5880 5880 5879 5879 5878 5877 5876 5875 5874 5873 5872 5871 5870 5870 5869 5868 5867 5866 5864
5882 5885 5885 5886 5887 5889 5890 5890 5890 5891 5892 5893 5892 5893 5889 5889 5888 5887 5887 5885 5883 5881 5880 5879 5877 5876 5877 5876 5876 5875 5873 5872 5871 5871 5870 5869 5868 5867 5866 5865 5864 5863 5861 5860
5878 5880 5881 5882 5883 5884 5885 5886 5887 5887 5887 5888 5887 5889 5885 5885 5884 5883 5882 5881 5880 5878 5877 5875 5874 5873 5873 5872 5872 5871 5869 5869 5868 5867 5865 5864 5864 5863 5862 5861 5860 5858 5857 5856
5873 5875 5877 5878 5881 5880 5881 5882 5883 5884 5884 5883 5883 5885 5879 5879 5879 5879 5878 5877 5875 5874 5873 5872 5871 5870 5869 5869 5868 5867 5866 5865 5863 5862 5861 5860 5859 5858 5857 5856 5855 5853 5852 5851
5867 5870 5872 5874 5875 5876 5876 5877 5878 5879 5878 5878 5879 5878 5876 5874 5874 5874 5873 5871 5870 5869 5869 5868 5868 5866 5865 5864 5863 5862 5861 5860 5859 5858 5856 5855 5854 5853 5852 5850 5849 5848 5847 5846
5862 5864 5865 5867 5869 5870 5871 5872 5872 5872 5873 5874 5874 5872 5871 5869 5867 5868 5868 5866 5866 5865 5864 5864 5863 5861 5859 5859 5858 5857 5856 5855 5853 5852 5851 5850 5849 5847 5846 5844 5843 5842 5841 5840
5856 5857 5859 5861 5862 5864 5865 5866 5866 5867 5868 5868 5868 5867 5865 5864 5862 5862 5862 5861 5861 5860 5859 5859 5858 5856 5855 5854 5853 5852 5851 5849 5848 5847 5845 5844 5843 5841 5840 5838 5837 5835 5834 5833
5849 5851 5853 5855 5857 5858 5859 5861 5862 5861 5861 5862 5862 5862 5860 5858 5856 5855 5855 5855 5855 5854 5853 5853 5852 5851 5850 5849 5848 5846 5845 5843 5842 5841 5839 5838 5836 5835 5833 5831 5830 5828 5827 5826
5843 5845 5846 5849 5851 5851 5855 5854 5854 5855 5855 5854 5854 5854 5854 5852 5851 5850 5848 5848 5848 5848 5847 5847 5846 5845 5843 5842 5841 5840 5839 5837 5836 5834 5833 5831 5829 5828 5826 5824 5823 5822 5820 5819
5836 5838 5840 5842 5844 5845 5847 5848 5848 5847 5847 5847 5847 5847 5847 5846 5844 5843 5843 5842 5841 5841 5841 5840 5839 5838 5837 5835 5834 5833 5832 5830 5828 5827 5825 5824 5822 5820 5819 5817 5816 5814 5812 5811
5830 5831 5834 5835 5836 5838 5840 5840 5840 5842 5841 5840 5840 5840 5840 5839 5837 5836 5835 5835 5835 5834 5834 5833 5832 5831 5830 5829 5827 5826 5824 5823 5821 5819 5818 5816 5814 5812 5810 5809 5807 5805 5803 5802
5823 5824 5826 5828 5829 5830 5831 5832 5833 5835 5834 5834 5833 5832 5832 5831 5829 5829 5828 5828 5828 5827 5826 5825 5824 5823 5822 5821 5819 5818 5816 5815 5813 5811 5810 5808 5806 5804 5802 5801 5799 5797 5795 5793
5815 5817 5819 5821 5822 5824 5824 5825 5826 5826 5826 5826 5825 5825 5824 5823 5822 5821 5821 5821 5820 5819 5819 5817 5816 5815 5814 5812 5811 5810 5808 5807 5805 5803 5802 5800 5798 5796 5794 5792 5790 5788 5786 5784
5808 5810 5812 5813 5815 5815 5815 5816 5816 5817 5818 5817 5817 5817 5817 5816 5815 5815 5814 5814 5813 5812 5811 5809 5808 5807 5805 5804 5803 5801 5800 5798 5796 5795 5793 5791 5789 5787 5785 5783 5781 5779 5777 5775
5799 5801 5803 5804 5806 5806 5808 5808 5808 5809 5809 5809 5808 5808 5808 5808 5807 5807 5806 5806 5805 5804 5802 5801 5800 5798 5797 5795 5794 5793 5791 5789 5787 5785 5784 5782 5780 5778 5776 5774 5772 5770 5768 5766
5791 5792 5794 5796 5798 5799 5799 5799 5799 5801 5801 5801 5800 5800 5800 5800 5799 5798 5798 5797 5796 5795 5794 5792 5791 5790 5788 5787 5785 5783 5782 5780 5778 5776 5774 5772 5770 5768 5766 5764 5762 5761 5759 5757
5783 5784 5786 5787 5788 5789 5790 5791 5792 5792 5793 5792 5792 5792 5792 5792 5791 5790 5789 5788 5787 5786 5785 5784 5782 5781 5780 5778 5777 5775 5773 5771 5769 5767 5765 5763 5761 5759 5757 5755 5753 5750 5749 5747